(210221) = 2007 RR60 = 1997 VJ7

Discovered at Catalina on 2007-09-10 by CSS.

Orbit

Orbit type: Main Belt

Note: WebGL enabled browser required.

epoch2024-03-31.0
epoch JD2460400.5
perihelion date2025-02-04.48627
perihelion JD2460710.98627
argument of perihelion (°)141.22986
ascending node (°)247.80744
inclination (°)1.89947
eccentricity0.1652290
perihelion distance (AU)1.8974324
Tisserand w.r.t. Jupiter3.6
ΔV w.r.t. Earth (km/sec)8.5
semimajor axis (AU)2.2729975
mean anomaly (°)270.70075
mean daily motion (°/day)0.28761090
aphelion distance (AU)2.649
period (years)3.43
P-vector [x]0.87398530
P-vector [y]0.43718947
P-vector [z]0.21216753
Q-vector [x]-0.48498225
Q-vector [y]0.81228932
Q-vector [z]0.32400351
absolute magnitude17.48
phase slope0.15
uncertainty0
referenceMPEC 2024-C115
observations used482
oppositions15
arc length (days)10324
first opposition used1995
last opposition used2023
residual rms (arc-secs)0.63
perturbers coarse indicatorM-v
perturbers precise indicator003Ek
first observation date used1995-02-01.0
last observation date used2023-05-09.0
computer nameMPCLINUX
JD of orbit computation2456966.849353
perihelion JD uncertainty (days)5.5180E-05
argument of perihelion uncertainty (°)1.5523E-04
ascending node uncertainty (°)1.5409E-04
inclination uncertainty (°)3.7567E-06
eccentricity uncertainty 4.8606E-08
perihelion distance uncertainty (AU)1.0919E-07
Minimum Orbit Intersection Distances (in AU)
for orbit epoch: 2460200.5, reference: E2024-CB5
Mercury1.56495
Venus1.17576
Earth0.90227
Mars0.4399
Jupiter2.78601
Saturn6.85952
Uranus15.8813
Neptune27.9429

Observations

489 total observations over interval: 1995 02 01.33458 – 2023 05 09.285613
These data are available for download (format description).

Date (UT) J2000 RA J2000 Dec Magn Location Ref
1995 02 01.33458 09 17 31.38 +12 35 04.1 20.0 V 691 – Steward Observatory, Kitt Peak-Spacewatch MPS 218138
1995 02 01.35738 09 17 29.87 +12 35 10.3   691 – Steward Observatory, Kitt Peak-Spacewatch MPS 218138
1995 02 01.37935 09 17 28.37 +12 35 16.3   691 – Steward Observatory, Kitt Peak-Spacewatch MPS 218138
1995 02 08.33517 09 09 55.50 +13 07 32.2 20.0 V 691 – Steward Observatory, Kitt Peak-Spacewatch MPS 218138
1995 02 08.37880 09 09 52.60 +13 07 42.6   691 – Steward Observatory, Kitt Peak-Spacewatch MPS 218138
1997 11 02.76241 04 12 09.29 +22 08 47.3   327 – Peking Observatory, Xinglong Station MPS 215
1997 11 02.77760 04 12 08.63 +22 08 45.0 19.1   327 – Peking Observatory, Xinglong Station MPS 215
1997 11 02.79273 04 12 07.86 +22 08 41.6   327 – Peking Observatory, Xinglong Station MPS 215
1997 11 06.75631 04 08 57.60 +21 55 11.9   327 – Peking Observatory, Xinglong Station MPS 215
1997 11 06.76087 04 08 57.33 +21 55 11.2   327 – Peking Observatory, Xinglong Station MPS 215
1997 11 06.76549 04 08 57.16 +21 55 10.6 18.8   327 – Peking Observatory, Xinglong Station MPS 215
2000 08 25.07652 21 16 27.60 -12 06 38.1 18.9 R 807 – Cerro Tololo Observatory, La Serena MPS 218138
2000 08 25.13931 21 16 24.01 -12 06 54.4   807 – Cerro Tololo Observatory, La Serena MPS 218138
2006 04 26.19356 14 02 08.26 -14 14 10.0 19.4 R 807 – Cerro Tololo Observatory, La Serena MPS 218138
2006 04 26.27932 14 02 02.97 -14 13 39.6   807 – Cerro Tololo Observatory, La Serena MPS 218138
2006 05 03.27799 13 55 14.55 -13 32 28.1 20.8 V G96 – Mt. Lemmon Survey MPS 218138
2006 05 03.28359 13 55 14.23 -13 32 26.0 20.6 V G96 – Mt. Lemmon Survey MPS 218138
2006 05 03.28925 13 55 13.90 -13 32 24.2 20.7 V G96 – Mt. Lemmon Survey MPS 218138
2006 05 03.29473 13 55 13.58 -13 32 22.3 20.6 V G96 – Mt. Lemmon Survey MPS 218138
2007 09 03.34780 23 32 25.36 +01 08 22.5 19.3 V 703 – Catalina Sky Survey MPS 218138
2007 09 03.35613 23 32 24.97 +01 08 20.2 19.1 V 703 – Catalina Sky Survey MPS 218138
2007 09 03.36447 23 32 24.57 +01 08 17.3 18.6 V 703 – Catalina Sky Survey MPS 218138
2007 09 03.37280 23 32 24.14 +01 08 15.3 18.7 V 703 – Catalina Sky Survey MPS 218138
2007 09 10.25112 23 26 41.74 +00 33 05.6 19.2 V 703 – Catalina Sky Survey MPS 216387
2007 09 10.25817 23 26 41.35 +00 33 03.6 19.0 V 703 – Catalina Sky Survey MPS 216387
2007 09 10.26521 23 26 40.92 +00 33 01.1 18.0 V 703 – Catalina Sky Survey MPS 216387
2007 09 10.27743 23 26 40.27 +00 32 56.5 18.9 V 703 – Catalina Sky Survey MPS 216387
2007 09 10.34010 23 26 36.85 +00 32 35.5 19.0 V 703 – Catalina Sky Survey MPS 216387
2007 09 10.34894 23 26 36.34 +00 32 32.8 19.2 V 703 – Catalina Sky Survey MPS 216387
2007 09 10.35780 23 26 35.88 +00 32 29.5 18.9 V 703 – Catalina Sky Survey MPS 216387
2007 09 10.36666 23 26 35.34 +00 32 26.7 18.9 V 703 – Catalina Sky Survey MPS 216387
2007 09 10.37715 23 26 34.80 +00 32 23.7 19.0 V 703 – Catalina Sky Survey MPS 216387
2007 09 10.38565 23 26 34.29 +00 32 20.2 18.6 V 703 – Catalina Sky Survey MPS 216387
2007 09 10.39417 23 26 33.86 +00 32 18.2 19.0 V 703 – Catalina Sky Survey MPS 216387
2007 09 10.40269 23 26 33.39 +00 32 14.8 18.9 V 703 – Catalina Sky Survey MPS 216387
2007 09 12.29460 23 24 54.39 +00 21 28.4 18.8 R 699 – Lowell Observatory-LONEOS MPS 216387
2007 09 12.31746 23 24 53.13 +00 21 20.4   699 – Lowell Observatory-LONEOS MPS 216387
2007 09 12.34030 23 24 51.88 +00 21 12.6   699 – Lowell Observatory-LONEOS MPS 216387
2007 09 12.36313 23 24 50.61 +00 21 04.0   699 – Lowell Observatory-LONEOS MPS 216387
2007 09 14.23634 23 23 11.74 +00 10 04.5 19.4 V 691 – Steward Observatory, Kitt Peak-Spacewatch MPS 216387
2007 09 14.24083 23 23 11.56 +00 10 03.0 19.5   704 – Lincoln Laboratory ETS, New Mexico MPS 216387
2007 09 14.25252 23 23 10.84 +00 09 58.4 19.5   704 – Lincoln Laboratory ETS, New Mexico MPS 216387
2007 09 14.25925 23 23 10.43 +00 09 56.5 18.9 V 691 – Steward Observatory, Kitt Peak-Spacewatch MPS 216387
2007 09 14.26421 23 23 10.17 +00 09 55.2 20.0   704 – Lincoln Laboratory ETS, New Mexico MPS 216387
2007 09 14.27432 23 23 09.60 +00 09 51.0 19.1 V 691 – Steward Observatory, Kitt Peak-Spacewatch MPS 216387
2007 09 14.27596 23 23 09.61 +00 09 50.0 19.9   704 – Lincoln Laboratory ETS, New Mexico MPS 216387
2007 09 14.28766 23 23 08.91 +00 09 45.9 20.1   704 – Lincoln Laboratory ETS, New Mexico MPS 216387
2007 09 14.30679 23 23 07.74 +00 09 39.6 18.5 R 699 – Lowell Observatory-LONEOS MPS 216387
2007 09 14.32962 23 23 06.47 +00 09 30.8   699 – Lowell Observatory-LONEOS MPS 216387
2007 09 14.35247 23 23 05.25 +00 09 23.4   699 – Lowell Observatory-LONEOS MPS 216387
2007 09 14.37531 23 23 03.93 +00 09 14.6   699 – Lowell Observatory-LONEOS MPS 216387
2007 09 17.23663 23 20 32.71 -00 08 02.5 19.3   704 – Lincoln Laboratory ETS, New Mexico MPS 216387
2007 09 17.26047 23 20 31.46 -00 08 11.7 19.7   704 – Lincoln Laboratory ETS, New Mexico MPS 216387
2007 09 17.28445 23 20 30.03 -00 08 19.9 19.9   704 – Lincoln Laboratory ETS, New Mexico MPS 216387
2007 09 19.24266 23 18 47.52 -00 20 22.2 19.1 V 691 – Steward Observatory, Kitt Peak-Spacewatch MPS 216387
2007 09 19.26024 23 18 46.56 -00 20 28.7 19.0 V 691 – Steward Observatory, Kitt Peak-Spacewatch MPS 216387
2007 09 19.27781 23 18 45.59 -00 20 35.3 19.2 V 691 – Steward Observatory, Kitt Peak-Spacewatch MPS 216387
2007 09 30.19584 23 10 03.80 -01 26 38.1 19.6 V 691 – Steward Observatory, Kitt Peak-Spacewatch MPS 218138
2007 09 30.21735 23 10 02.83 -01 26 45.4 19.5 V 691 – Steward Observatory, Kitt Peak-Spacewatch MPS 218138
2007 09 30.23887 23 10 01.89 -01 26 53.3 19.6 V 691 – Steward Observatory, Kitt Peak-Spacewatch MPS 218138
2007 10 04.10402 23 07 31.11 -01 48 15.7   691 – Steward Observatory, Kitt Peak-Spacewatch MPS 218138
2007 10 04.11849 23 07 30.53 -01 48 20.1   691 – Steward Observatory, Kitt Peak-Spacewatch MPS 218138
2007 10 04.13242 23 07 29.99 -01 48 24.6   691 – Steward Observatory, Kitt Peak-Spacewatch MPS 218138
2007 10 08.22645 23 05 16.08 -02 08 59.6 19.4 V G96 – Mt. Lemmon Survey MPS 218784
2007 10 08.23333 23 05 15.86 -02 09 01.3 19.5 V G96 – Mt. Lemmon Survey MPS 218784
2007 10 08.24019 23 05 15.64 -02 09 03.4 19.4 V G96 – Mt. Lemmon Survey MPS 218784
2007 10 08.24707 23 05 15.43 -02 09 05.4 19.4 V G96 – Mt. Lemmon Survey MPS 218784
2007 10 14.15996 23 02 57.91 -02 34 01.4 20.2   704 – Lincoln Laboratory ETS, New Mexico MPS 220640
2007 10 14.17122 23 02 57.70 -02 34 04.1 20.2   704 – Lincoln Laboratory ETS, New Mexico MPS 220640
2007 10 14.18247 23 02 57.48 -02 34 07.6 20.4   704 – Lincoln Laboratory ETS, New Mexico MPS 220640
2007 10 14.19374 23 02 57.25 -02 34 09.2 20.2   704 – Lincoln Laboratory ETS, New Mexico MPS 220640
2007 11 07.12523 23 06 05.32 -03 02 16.6 20.3 V G96 – Mt. Lemmon Survey MPS 224956
2007 11 07.13077 23 06 05.50 -03 02 16.1 20.3 V G96 – Mt. Lemmon Survey MPS 224956
2007 11 07.13633 23 06 05.65 -03 02 16.0 20.2 V G96 – Mt. Lemmon Survey MPS 224956
2007 11 07.14193 23 06 05.83 -03 02 15.3 20.4 V G96 – Mt. Lemmon Survey MPS 224956
2009 01 31.43764 11 52 16.60 -02 09 15.9 21.2 V G96 – Mt. Lemmon Survey MPS 272678
2009 01 31.44488 11 52 16.50 -02 09 15.3 21.2 V G96 – Mt. Lemmon Survey MPS 272678
2009 01 31.45228 11 52 16.35 -02 09 14.6 21.2 V G96 – Mt. Lemmon Survey MPS 272678
2009 01 31.45966 11 52 16.17 -02 09 14.0 21.3 V G96 – Mt. Lemmon Survey MPS 272678
2009 02 28.22895 11 34 10.19 -00 30 17.0   691 – Steward Observatory, Kitt Peak-Spacewatch MPS 278719
2009 02 28.24658 11 34 09.17 -00 30 11.7   691 – Steward Observatory, Kitt Peak-Spacewatch MPS 278719
2009 02 28.26420 11 34 08.17 -00 30 05.7   691 – Steward Observatory, Kitt Peak-Spacewatch MPS 278719
2009 03 24.26835 11 11 17.37 +02 01 31.3 20.8 V G96 – Mt. Lemmon Survey MPS 282448
2009 03 24.27730 11 11 16.76 +02 01 34.1 21.5 V G96 – Mt. Lemmon Survey MPS 282448
2009 03 24.28627 11 11 16.44 +02 01 37.4 20.6 V G96 – Mt. Lemmon Survey MPS 282448
2009 03 24.29522 11 11 15.90 +02 01 41.2 20.4 V G96 – Mt. Lemmon Survey MPS 282448
2011 12 27.37681 08 16 27.87 +17 27 34.2 20.4 V G96 – Mt. Lemmon Survey MPS 405745
2011 12 27.38556 08 16 27.40 +17 27 34.9 20.1 V G96 – Mt. Lemmon Survey MPS 405745
